Weather History for Cook, MN

Change the Weather History Date:

Sunday, January 5, 2014

  Actual Average Record
Temperature  
Mean Temperature -24 °F -  
Max Temperature -14 °F 16 °F 44 °F (2012)
Min Temperature -34 °F 0 °F -36 °F (2005)
Degree Days  
Heating Degree Days 89    
Moisture  
Dew Point -30 °F    
Average Humidity 70    
Maximum Humidity 83    
Minimum Humidity 58    
Precipitation  
Precipitation 0.00 in - - ()
Sea Level Pressure  
Sea Level Pressure 30.19 in    
Wind  
Wind Speed 6 mph (West)    
Max Wind Speed 16 mph    
Max Gust Speed 18 mph    
Visibility 10 miles    
Events Snow    
Averages and records for this station are not official NWS values.
T = Trace of Precipitation, MM = Missing Value Source: NWS Daily Summary

Daily Weather History Graph

Daily Weather History Graph

Search for Another Location

Airport:

Trip Planner

Search our weather history database for the weather conditions in past years. The results will help you decide how hot, cold, wet, or windy it might be!

Date:

Astronomy

Jan. 05, 2014 Rise Set
Actual Time 7:59 AM CST 4:33 PM CST
Civil Twilight 7:23 AM CST 5:09 PM CST
Nautical Twilight 6:44 AM CST 5:48 PM CST
Astronomical Twilight 6:07 AM CST 6:25 PM CST
Moon 10:17 AM CST (1/5) 10:27 PM CST (1/5)
Length of Visible Light 9h 45m
Length of Day
8h 33m
Waxing Crescent, 25% of the Moon is Illuminated
Jan 5
Waxing Crescent
Jan 7
First Quarter
Jan 15
Full
Jan 23
Last Quarter
Jan 30
New

Hourly Weather History & Observations

Time (CST) Temp. Windchill Dew Point Humidity Pressure Visibility Wind Dir Wind Speed Gust Speed Precip Events Conditions
12:14 AM -20.2 °F -35.5 °F -25.6 °F 76% 30.15 in 10.0 mi West 5.8 mph - N/A   Clear
12:35 AM -20.2 °F -33.5 °F -25.6 °F 76% 30.15 in 10.0 mi West 4.6 mph - N/A   Clear
12:54 AM -20.2 °F -33.5 °F -23.8 °F 83% 30.15 in 10.0 mi West 4.6 mph - N/A   Clear
1:15 AM -23.8 °F -41.6 °F -27.4 °F 83% 30.14 in 10.0 mi West 6.9 mph - N/A   Clear
1:35 AM -23.8 °F -41.6 °F -27.4 °F 83% 30.15 in 10.0 mi West 6.9 mph - N/A   Clear
1:54 AM -20.2 °F -33.5 °F -25.6 °F 76% 30.16 in 10.0 mi West 4.6 mph - N/A   Clear
2:15 AM -23.8 °F -37.7 °F -27.4 °F 83% 30.15 in 10.0 mi West 4.6 mph - N/A   Clear
2:35 AM -25.6 °F -43.8 °F -31.0 °F 76% 30.16 in 10.0 mi West 6.9 mph - N/A   Clear
2:54 AM -23.8 °F -39.8 °F -27.4 °F 83% 30.16 in 10.0 mi WNW 5.8 mph - N/A   Clear
3:14 AM -23.8 °F -37.7 °F -29.2 °F 76% 30.16 in 10.0 mi West 4.6 mph - N/A   Clear
3:35 AM -25.6 °F - -29.2 °F 83% 30.15 in 10.0 mi Calm Calm - N/A   Clear
3:55 AM -25.6 °F - -31.0 °F 76% 30.16 in 10.0 mi Calm Calm - N/A   Clear
4:14 AM -25.6 °F - -29.2 °F 83% 30.17 in 10.0 mi Calm Calm - N/A   Clear
4:35 AM -25.6 °F - -32.8 °F 69% 30.17 in 10.0 mi Calm Calm - N/A   Clear
4:55 AM -29.2 °F - -36.4 °F 68% 30.18 in 10.0 mi Calm Calm - N/A   Clear
5:14 AM -31.0 °F - -36.4 °F 75% 30.18 in 10.0 mi Calm Calm - N/A   Clear
5:35 AM -29.2 °F - -36.4 °F 68% 30.19 in 10.0 mi Calm Calm - N/A   Clear
5:55 AM -31.0 °F - -36.4 °F 75% 30.20 in 10.0 mi Calm Calm - N/A   Clear
6:14 AM -27.4 °F - -32.8 °F 75% 30.20 in 10.0 mi Calm Calm - N/A   Clear
6:35 AM -32.8 °F - -40.0 °F 68% 30.20 in 10.0 mi Calm Calm - N/A   Clear
6:55 AM -34.6 °F - -41.8 °F 68% 30.21 in - Calm Calm - N/A   Clear
7:14 AM -34.6 °F - -41.8 °F 68% 30.22 in - Calm Calm - N/A   Clear
7:35 AM -29.2 °F - -34.6 °F 75% 30.22 in - Calm Calm - N/A   Clear
7:55 AM -32.8 °F - -38.2 °F 75% 30.22 in - Calm Calm - N/A   Clear
8:14 AM -29.2 °F -41.2 °F -34.6 °F 75% 30.23 in - West 3.5 mph - N/A   Clear
8:35 AM -29.2 °F -44.0 °F -36.4 °F 68% 30.23 in 10.0 mi West 4.6 mph - N/A   Clear
8:55 AM -27.4 °F -41.9 °F -34.6 °F 69% 30.24 in - West 4.6 mph - N/A   Clear
9:14 AM -25.6 °F -45.4 °F -31.0 °F 76% 30.24 in - West 8.1 mph - N/A   Clear
9:35 AM -23.8 °F -43.2 °F -29.2 °F 76% 30.24 in - West 8.1 mph - N/A   Clear
9:55 AM -22.0 °F -41.0 °F -27.4 °F 76% 30.24 in - WNW 8.1 mph - N/A   Clear
10:14 AM -22.0 °F -39.4 °F -27.4 °F 76% 30.24 in 10.0 mi WNW 6.9 mph - N/A   Clear
10:35 AM -20.2 °F -38.8 °F -27.4 °F 69% 30.25 in 10.0 mi WNW 8.1 mph - N/A   Clear
10:55 AM -20.2 °F -37.3 °F -25.6 °F 76% 30.24 in 10.0 mi West 6.9 mph - N/A   Clear
11:14 AM -18.4 °F -35.1 °F -25.6 °F 70% 30.23 in 10.0 mi WNW 6.9 mph - N/A   Clear
11:35 AM -18.4 °F -36.6 °F -25.6 °F 70% 30.23 in 10.0 mi West 8.1 mph - N/A   Clear
11:55 AM -18.4 °F -36.6 °F -25.6 °F 70% 30.22 in 10.0 mi West 8.1 mph - N/A   Clear
12:14 PM -16.6 °F -35.7 °F -25.6 °F 64% 30.21 in 10.0 mi WNW 9.2 mph - N/A   Clear
12:35 PM -16.6 °F -39.8 °F -25.6 °F 64% 30.20 in 10.0 mi West 13.8 mph - N/A   Clear
12:55 PM -16.6 °F -38.9 °F -25.6 °F 64% 30.20 in 10.0 mi West 12.7 mph - N/A   Clear
1:14 PM -14.8 °F -36.6 °F -25.6 °F 58% 30.20 in 10.0 mi West 12.7 mph 16.1 mph N/A   Clear
1:35 PM -14.8 °F -36.6 °F -25.6 °F 58% 30.19 in 10.0 mi WNW 12.7 mph 17.3 mph N/A   Clear
1:54 PM -14.8 °F -35.6 °F -25.6 °F 58% 30.19 in 10.0 mi West 11.5 mph - N/A   Clear
2:15 PM -14.8 °F -35.6 °F -25.6 °F 58% 30.19 in 10.0 mi West 11.5 mph 16.1 mph N/A   Clear
2:35 PM -14.8 °F -36.6 °F -25.6 °F 58% 30.20 in 10.0 mi WNW 12.7 mph 18.4 mph N/A   Clear
2:55 PM -14.8 °F -37.5 °F -25.6 °F 58% 30.20 in 10.0 mi WNW 13.8 mph 17.3 mph N/A   Clear
3:14 PM -16.6 °F -34.4 °F -25.6 °F 64% 30.20 in 10.0 mi West 8.1 mph - N/A   Clear
3:35 PM -16.6 °F -38.9 °F -25.6 °F 64% 30.20 in 10.0 mi West 12.7 mph - N/A   Scattered Clouds
3:54 PM -16.6 °F -41.4 °F -27.4 °F 58% 30.20 in 10.0 mi WNW 16.1 mph - N/A   Clear
4:15 PM -18.4 °F -40.2 °F -25.6 °F 70% 30.20 in 10.0 mi WNW 11.5 mph - N/A   Scattered Clouds
4:35 PM -18.4 °F -37.9 °F -27.4 °F 63% 30.20 in 10.0 mi West 9.2 mph - N/A   Clear
4:55 PM -20.2 °F -42.4 °F -27.4 °F 69% 30.20 in 10.0 mi West 11.5 mph - N/A   Clear
5:14 PM -20.2 °F -40.1 °F -27.4 °F 69% 30.21 in 10.0 mi West 9.2 mph - N/A   Clear
5:35 PM -20.2 °F -42.4 °F -29.2 °F 63% 30.21 in 10.0 mi West 11.5 mph - N/A   Clear
5:55 PM -20.2 °F -43.4 °F -29.2 °F 63% 30.21 in 10.0 mi West 12.7 mph - N/A   Clear
6:14 PM -20.2 °F -43.4 °F -29.2 °F 63% 30.21 in 10.0 mi West 12.7 mph - N/A   Clear
6:35 PM -22.0 °F -42.3 °F -29.2 °F 69% 30.21 in 10.0 mi WNW 9.2 mph - N/A   Clear
6:54 PM -22.0 °F -44.7 °F -29.2 °F 69% 30.20 in 10.0 mi West 11.5 mph - N/A   Clear
7:15 PM -23.8 °F -44.5 °F -29.2 °F 76% 30.20 in 10.0 mi West 9.2 mph - N/A   Clear
7:35 PM -23.8 °F -46.9 °F -29.2 °F 76% 30.20 in 10.0 mi West 11.5 mph - N/A   Clear
7:54 PM -23.8 °F -43.2 °F -31.0 °F 69% 30.20 in 10.0 mi WNW 8.1 mph - N/A   Clear
8:15 PM -25.6 °F -43.8 °F -31.0 °F 76% 30.19 in 10.0 mi WNW 6.9 mph - N/A   Clear
8:35 PM -25.6 °F -43.8 °F -32.8 °F 69% 30.19 in 5.0 mi West 6.9 mph - N/A   Haze
8:54 PM -25.6 °F -45.4 °F -32.8 °F 69% 30.18 in 7.0 mi West 8.1 mph - N/A   Scattered Clouds
9:15 PM -25.6 °F -46.8 °F -32.8 °F 69% 30.18 in 7.0 mi West 9.2 mph - N/A   Scattered Clouds
9:35 PM -27.4 °F -51.4 °F -34.6 °F 69% 30.18 in 10.0 mi West 11.5 mph - N/A   Clear
9:54 PM -27.4 °F -44.1 °F -34.6 °F 69% 30.17 in 10.0 mi West 5.8 mph - N/A   Clear
10:15 PM -25.6 °F -43.8 °F -34.6 °F 63% 30.17 in 4.0 mi West 6.9 mph - N/A Snow Light Snow
10:35 PM -25.6 °F -43.8 °F -32.8 °F 69% 30.16 in 4.0 mi West 6.9 mph - N/A Snow Light Snow
10:54 PM -25.6 °F -43.8 °F -32.8 °F 69% 30.16 in 10.0 mi West 6.9 mph - N/A   Mostly Cloudy
11:15 PM -25.6 °F -45.4 °F -32.8 °F 69% 30.15 in 10.0 mi West 8.1 mph - N/A   Mostly Cloudy
11:35 PM -25.6 °F -45.4 °F -34.6 °F 63% 30.15 in 7.0 mi WNW 8.1 mph - N/A   Mostly Cloudy
11:54 PM -25.6 °F -41.9 °F -34.6 °F 63% 30.14 in 10.0 mi West 5.8 mph - N/A   Scattered Clouds